| time (UTC) | temp F | wind direction | speed knots | gust knots | rain 1hr in | rain 24hr in | rain mn in | humidity % | barometer mb |
| 20260504000018 | 68 | 261 | 2.6 | 7.8 | 0.00 | 0.00 | 0.00 | 33 | 1004.2 |
| 20260503234516 | 69 | 272 | 1.7 | 8.7 | 0.00 | 0.00 | 0.00 | 33 | 1004.0 |
| 20260503233012 | 69 | 262 | 0.9 | 5.2 | 0.00 | 0.00 | 0.00 | 33 | 1004.0 |
| 20260503231522 | 69 | 309 | 1.7 | 7.0 | 0.00 | 0.00 | 0.00 | 34 | 1004.1 |
| 20260503230020 | 70 | 240 | 1.7 | 8.7 | 0.00 | 0.00 | 0.00 | 34 | 1004.3 |
| 20260503224517 | 69 | 271 | 4.3 | 10.4 | 0.00 | 0.00 | 0.00 | 1004.4 | |
| 20260503223022 | 69 | 279 | 2.6 | 9.6 | 0.00 | 0.00 | 0.00 | 36 | 1004.3 |
| 20260503221520 | 69 | 253 | 2.6 | 13.0 | 0.00 | 0.00 | 0.00 | 36 | 1004.4 |
| 20260503220021 | 68 | 288 | 3.5 | 11.3 | 0.00 | 0.00 | 0.00 | 37 | 1004.4 |
| 20260503214519 | 68 | 9 | 4.3 | 11.3 | 0.00 | 0.00 | 0.00 | 37 | 1004.4 |
| 20260503213020 | 68 | 254 | 5.2 | 12.2 | 0.00 | 0.00 | 0.00 | 40 | 1004.4 |
| 20260503211532 | 67 | 248 | 4.3 | 13.0 | 0.00 | 0.00 | 0.00 | 41 | 1004.6 |
| 20260503210020 | 66 | 215 | 5.2 | 13.9 | 0.00 | 0.00 | 0.00 | 42 | 1004.7 |
| 20260503204520 | 65 | 247 | 7.0 | 13.9 | 0.00 | 0.00 | 0.00 | 42 | 1004.9 |
| 20260503203022 | 65 | 250 | 4.3 | 15.6 | 0.00 | 0.00 | 0.00 | 43 | 1005.0 |
| 20260503201524 | 64 | 153 | 7.0 | 15.6 | 0.00 | 0.00 | 0.00 | 43 | 1005.2 |
| 20260503200019 | 64 | 246 | 6.1 | 13.0 | 0.00 | 0.00 | 0.00 | 44 | 1005.3 |
| 20260503194525 | 63 | 215 | 7.8 | 16.5 | 0.00 | 0.00 | 0.00 | 45 | 1005.6 |
| 20260503193025 | 62 | 201 | 7.0 | 16.5 | 0.00 | 0.00 | 0.00 | 45 | 1005.8 |
| 20260503191524 | 62 | 216 | 9.6 | 14.8 | 0.00 | 0.00 | 0.00 | 46 | 1006.1 |
| 20260503190040 | 63 | 218 | 6.1 | 16.5 | 0.00 | 0.00 | 0.00 | 44 | 1006.0 |
| 20260503184521 | 62 | 280 | 5.2 | 13.9 | 0.00 | 0.00 | 0.00 | 45 | 1006.1 |
| 20260503183011 | 61 | 239 | 7.0 | 16.5 | 0.00 | 0.00 | 0.00 | 47 | 1006.2 |
| 20260503181508 | 60 | 224 | 6.1 | 17.4 | 0.00 | 0.00 | 0.00 | 47 | 1006.4 |
| 20260503180022 | 60 | 201 | 6.1 | 20.9 | 0.00 | 0.00 | 0.00 | 47 | 1006.5 |
| 20260503174517 | 59 | 215 | 7.8 | 26.9 | 0.00 | 0.00 | 0.00 | 48 | 1006.5 |
| 20260503173025 | 59 | 242 | 7.0 | 16.5 | 0.00 | 0.00 | 0.00 | 48 | 1006.9 |
| 20260503171511 | 59 | 236 | 7.0 | 17.4 | 0.00 | 0.00 | 0.00 | 48 | 1006.8 |
| 20260503081537 | 46 | 225 | 4.3 | 11.3 | 0.00 | 0.00 | 0.00 | 51 | 1011.4 |
| 20260503071528 | 45 | 191 | 4.3 | 8.7 | 0.00 | 0.00 | 0.00 | 52 | 1011.7 |
| 20260503054537 | 45 | 202 | 4.3 | 8.7 | 0.00 | 0.00 | 0.00 | 50 | 1012.3 |
| 20260503053028 | 46 | 211 | 4.3 | 10.4 | 0.00 | 0.00 | 0.00 | 49 | 1012.5 |
| 20260503051520 | 46 | 192 | 2.6 | 7.8 | 0.00 | 0.00 | 0.00 | 48 | 1012.7 |
| 20260503050023 | 46 | 202 | 3.5 | 7.0 | 0.00 | 0.00 | 0.00 | 48 | 1012.7 |
| 20260503044526 | 46 | 189 | 3.5 | 7.0 | 0.00 | 0.00 | 0.00 | 47 | 1012.9 |
| 20260503043028 | 46 | 215 | 2.6 | 7.8 | 0.00 | 0.00 | 0.00 | 46 | 1013.0 |
| 20260503041526 | 47 | 179 | 2.6 | 7.8 | 0.00 | 0.00 | 0.00 | 45 | 1013.2 |
| 20260503040027 | 47 | 202 | 2.6 | 6.1 | 0.00 | 0.00 | 0.00 | 44 | 1013.4 |
| 20260503034506 | 48 | 219 | 2.6 | 7.8 | 0.00 | 0.00 | 0.00 | 43 | 1013.5 |
| 20260503033020 | 48 | 213 | 2.6 | 7.0 | 0.00 | 0.00 | 0.00 | 43 | 1013.6 |
| 20260503031516 | 48 | 250 | 2.6 | 4.3 | 0.00 | 0.00 | 0.00 | 41 | 1013.7 |
| 20260503030023 | 49 | 229 | 2.6 | 5.2 | 0.00 | 0.00 | 0.00 | 41 | 1013.8 |
| 20260503024524 | 49 | 215 | 1.7 | 4.3 | 0.00 | 0.00 | 0.00 | 40 | 1013.9 |
| 20260503023012 | 50 | 190 | 1.7 | 5.2 | 0.00 | 0.00 | 0.00 | 39 | 1013.9 |
| 20260503021515 | 50 | 193 | 3.5 | 6.1 | 0.00 | 0.00 | 0.00 | 38 | 1013.9 |
| 20260503020019 | 50 | 214 | 1.7 | 4.3 | 0.00 | 0.00 | 0.00 | 38 | 1013.8 |
| 20260503014535 | 51 | 213 | 0.9 | 3.5 | 0.00 | 0.00 | 0.00 | 38 | 1013.7 |
| 20260503013033 | 51 | 196 | 1.7 | 5.2 | 0.00 | 0.00 | 0.00 | 37 | 1013.6 |
| 20260503011512 | 52 | 196 | 1.7 | 5.2 | 0.00 | 0.00 | 0.00 | 36 | 1013.7 |
| 20260503010018 | 53 | 206 | 0.9 | 4.3 | 0.00 | 0.00 | 0.00 | 36 | 1013.6 |
| 20260503004527 | 54 | 236 | 2.6 | 6.1 | 0.00 | 0.00 | 0.00 | 34 | 1013.6 |
| 20260503003026 | 54 | 282 | 1.7 | 6.1 | 0.00 | 0.00 | 0.00 | 34 | 1013.7 |
| 20260503001528 | 55 | 290 | 1.7 | 7.0 | 0.00 | 0.00 | 0.00 | 33 | 1013.8 |